ジャクソン-ニェウイミン彗星

58P/Jackson-Neujmin (2004)

English version
Home page
Updated on September 29, 2004

---------------------------------------------------------------------

・ プロフィール

・ 軌道要素

Epoch 2003 Dec. 27.0 TT = JDT 2453000.5  
T 2004 Jan.  9.99360 TT                                 Muraoka 
q   1.3886640            (2000.0)            P               Q
n   0.11915949     Peri.  200.43879     +0.99664907     -0.02693160
a   4.0899403      Node   160.61516     +0.04090286     +0.98179949
e   0.6604684      Incl.   13.45603     -0.07083496     +0.18800119
P   8.27
From 320 observations 1970-1996, mean residual 0".75.  Nongravitational
   parameters A1 = +0.30 +/- 0.03, A2 = -0.0153 +/- 0.0002.

・ 星図

・ 光度変化

        m1 = 7.5 + 5 logΔ + 30 log r(t - 80)

---------------------------------------------------------------------

軌道要素は村岡健治氏の計算によるものです。
星図は StellaNavigator Ver.2.0 for Windows (アストロアーツ 編著 / アスキー出版局刊) で作成したものです。
光度グラフはComet for Windowsで作成したものです。

---------------------------------------------------------------------

Copyright(C) Seiichi Yoshida (comet@aerith.net). All rights reserved.